Location: Cincinnati Observatory Center
(39.1389°N, 84.4225°W)
Time: 03:00:26
(UTC-04:00)

Hubble Space Telescope - Visible Passes

Search period start: 01 October 2016 00:00
Search period end: 11 October 2016 00:00
Orbit: 539 x 542 km, 28.5° (Epoch: 30 September)

Date Brightness Start Highest point End Pass type
(mag) Time Alt. Az. Time Alt. Az. Time Alt. Az.
06 Oct 3.1 21:06:09 10° SSW 21:07:14 13° SSW 21:07:14 13° SSW visible
07 Oct 2.9 20:56:00 10° SSW 20:58:02 16° S 20:58:02 16° S visible
08 Oct 2.7 20:45:56 10° SW 20:48:43 18° S 20:48:47 18° S visible
09 Oct 2.6 20:35:55 10° SW 20:38:48 18° S 20:39:30 18° SSE visible
10 Oct 2.7 20:25:57 10° SW 20:28:52 19° S 20:30:13 16° SSE visible
